This demonstration page uses our WeatherBlox Daily Observations layout. Learn more.

Left ArrowRight Arrow

39.51506, -84.39828

Hourly Observations for May 17, 2022

Temp ( °F °C ) Dew Point ( °F °C ) Humidity (%) Winds ( mph kmh ) Pressure ( in mb ) Visibility ( mi km ) Precip ( " mm )
12:15 am 00:15 Partly Cloudy 56 13.4 53 11.8 90 90 SSW 5 7 29.92 1013 10 16 0.00 0.00
12:35 am 00:35 Clear 56 13.4 53 11.8 90 90 SW 3 6 29.92 1013 10 16 0.00 0.00
12:55 am 00:55 Clear 56 13.2 52 11.1 87 87 SSE 3 6 29.92 1013 10 16 0.00 0.00
1:15 am 01:15 Clear 56 13.1 52 11 87 87 S 3 6 29.92 1013 10 16 0.00 0.00
1:35 am 01:35 Clear 56 13.1 53 11.9 93 93 S 3 6 29.92 1013 10 16 0.00 0.00
1:55 am 01:55 Clear 54 12.3 52 11.1 92 92 S 5 7 29.92 1013 10 16 0.00 0.00
2:15 am 02:15 Clear 53 11.7 52 11 96 96 S 5 7 29.92 1013 10 16 0.00 0.00
2:35 am 02:35 Clear 53 11.5 52 11 97 97 S 3 6 29.92 1013 10 16 0.00 0.00
2:55 am 02:55 Clear 53 11.5 52 10.9 96 96 SSW 5 7 29.92 1013 10 16 0.00 0.00
3:15 am 03:15 Clear 51 10.5 51 10.5 100 100 SSW 5 7 29.92 1013 10 16 0.00 0.00
3:35 am 03:35 Clear 53 11.5 51 10.6 94 94 SSW 5 7 29.92 1013 10 16 0.00 0.00
3:55 am 03:55 Clear 51 10.8 51 10.7 99 99 S 5 7 29.92 1013 10 16 0.00 0.00
4:15 am 04:15 Clear 53 11.5 49 9.6 88 88 SSW 6 9 29.92 1013 10 16 0.00 0.00
4:35 am 04:35 Clear 52 11.2 50 10 92 92 SSW 6 9 29.92 1013 10 16 0.00 0.00
4:55 am 04:55 Clear 52 11.1 49 9.3 89 89 S 6 9 29.93 1013 10 16 0.00 0.00
5:15 am 05:15 Clear 52 11.1 49 9.3 89 89 S 5 7 29.93 1013 10 16 0.00 0.00
5:35 am 05:35 Clear 52 11.1 49 9.2 88 88 S 5 7 29.94 1014 10 16 0.00 0.00
5:55 am 05:55 Clear 51 10.7 48 9.1 90 90 S 6 9 29.94 1014 10 16 0.00 0.00
6:15 am 06:15 Clear 51 10.3 49 9.3 94 94 S 5 7 29.95 1014 10 16 0.00 0.00
6:35 am 06:35 Sunny 51 10.8 49 9.4 91 91 S 6 9 29.95 1014 10 16 0.00 0.00
6:55 am 06:55 Sunny 52 11.2 49 9.4 89 89 S 5 7 29.96 1014 10 16 0.00 0.00
7:15 am 07:15 Sunny 54 12.2 51 10.3 88 88 SSW 5 7 29.95 1014 10 16 0.00 0.00
7:35 am 07:35 Sunny 56 13.3 50 10.1 81 81 S 5 7 29.96 1015 10 16 0.00 0.00
7:55 am 07:55 Sunny 58 14.6 51 10.7 78 78 S 5 7 29.97 1015 10 16 0.00 0.00
8:15 am 08:15 Sunny 60 15.7 50 10.2 70 70 S 5 7 29.96 1015 10 16 0.00 0.00
8:35 am 08:35 Sunny 62 16.7 50 10.1 65 65 SSE 3 6 29.96 1015 10 16 0.00 0.00
8:55 am 08:55 Sunny 65 18.5 48 9.1 54 54 W 3 6 29.96 1014 10 16 0.00 0.00
9:15 am 09:15 Sunny 67 19.6 48 8.9 50 50 WNW 9 15 29.97 1015 10 16 0.00 0.00
9:35 am 09:35 Sunny 68 20 47 8.5 48 48 WNW 8 13 29.96 1015 10 16 0.00 0.00
9:55 am 09:55 Sunny 69 20.6 47 8.5 46 46 W 7 11 29.97 1015 10 16 0.00 0.00
10:15 am 10:15 Sunny 70 21.2 49 9.2 46 46 W 5 7 29.97 1015 10 16 0.00 0.00
10:35 am 10:35 Sunny 71 21.9 47 8.3 42 42 W 10 17 29.98 1015 10 16 0.00 0.00
10:55 am 10:55 Sunny 72 22.2 46 7.8 40 40 WNW 10 17 29.98 1015 10 16 0.00 0.00
11:15 am 11:15 Sunny 73 22.8 48 8.7 41 41 W 9 15 29.99 1016 10 16 0.00 0.00
11:35 am 11:35 Sunny 73 23 49 9.4 42 42 WNW 10 17 30.00 1016 10 16 0.00 0.00
11:55 am 11:55 Sunny 74 23.1 47 8.3 39 39 NNW 10 17 30.00 1016 10 16 0.00 0.00
12:15 pm 12:15 Sunny 74 23.4 47 8.4 38 38 WNW 9 15 30.00 1016 10 16 0.00 0.00
12:35 pm 12:35 Sunny 75 23.9 49 9.4 40 40 WNW 8 13 30.00 1016 10 16 0.00 0.00
12:55 pm 12:55 Sunny 75 23.9 49 9.2 39 39 NNW 15 24 30.00 1016 10 16 0.00 0.00
1:15 pm 13:15 Sunny 75 24 47 8.5 37 37 WNW 13 20 30.00 1016 10 16 0.00 0.00
1:35 pm 13:35 Sunny 75 24.1 46 7.7 35 35 NNW 9 15 30.00 1016 10 16 0.00 0.00
1:55 pm 13:55 Sunny 76 24.2 46 7.5 34 34 NW 12 19 29.98 1015 10 16 0.00 0.00
2:15 pm 14:15 Sunny 76 24.4 46 7.9 35 35 NW 13 20 29.98 1015 10 16 0.00 0.00
2:35 pm 14:35 Sunny 77 24.8 46 7.9 34 34 WNW 13 20 29.98 1015 10 16 0.00 0.00
2:55 pm 14:55 Sunny 77 24.8 47 8.4 35 35 NW 10 17 29.98 1015 10 16 0.00 0.00
3:15 pm 15:15 Sunny 77 25.1 45 7.3 32 32 NNW 9 15 29.98 1015 10 16 0.00 0.00
3:35 pm 15:35 Sunny 77 25.2 46 7.5 32 32 WNW 7 11 29.98 1015 10 16 0.00 0.00
3:55 pm 15:55 Sunny 77 25 43 6.1 30 30 NW 12 19 29.97 1015 10 16 0.00 0.00
4:15 pm 16:15 Sunny 78 25.4 45 7.2 31 31 WNW 6 9 29.97 1015 10 16 0.00 0.00
4:35 pm 16:35 Sunny 78 25.5 44 6.6 30 30 WNW 12 19 29.97 1015 10 16 0.00 0.00
4:55 pm 16:55 Sunny 78 25.5 46 7.6 32 32 NW 12 19 29.96 1015 10 16 0.00 0.00
5:15 pm 17:15 Sunny 78 25.5 46 7.7 32 32 WNW 9 15 29.97 1015 10 16 0.00 0.00
5:35 pm 17:35 Sunny 77 25.2 44 6.5 30 30 NW 7 11 29.96 1015 10 16 0.00 0.00
5:55 pm 17:55 Sunny 77 25.2 45 7.3 32 32 WNW 6 9 29.96 1015 10 16 0.00 0.00
6:15 pm 18:15 Sunny 77 24.9 43 6 30 30 NNW 9 15 29.96 1015 10 16 0.00 0.00
6:35 pm 18:35 Partly Cloudy 77 24.8 44 6.8 32 32 NW 9 15 29.96 1015 10 16 0.00 0.00
6:55 pm 18:55 Sunny 76 24.2 44 6.4 32 32 NW 9 15 29.96 1015 10 16 0.00 0.00
7:15 pm 19:15 Partly Cloudy 74 23.4 43 6 33 33 NW 7 11 29.97 1015 10 16 0.00 0.00
7:35 pm 19:35 Partly Cloudy 73 23 43 5.9 33 33 NNW 7 11 29.97 1015 10 16 0.00 0.00
7:55 pm 19:55 Mostly Cloudy 73 22.9 44 6.9 36 36 NNW 5 7 29.98 1015 10 16 0.00 0.00
8:15 pm 20:15 Partly Cloudy 71 21.9 45 7.3 39 39 NNW 6 9 29.98 1015 10 16 0.00 0.00
8:35 pm 20:35 Sunny 70 21 45 7.3 41 41 NNW 6 9 29.98 1015 10 16 0.00 0.00
8:55 pm 20:55 Clear 67 19.3 46 7.9 48 48 NNW 5 7 29.99 1015 10 16 0.00 0.00
9:15 pm 21:15 Clear 66 18.7 49 9.4 55 55 NNW 3 6 30.00 1016 10 16 0.00 0.00
9:35 pm 21:35 Clear 64 17.6 49 9.6 60 60 N 3 6 30.00 1016 10 16 0.00 0.00
9:55 pm 21:55 Clear 64 17.9 47 8.3 54 54 N 5 7 30.00 1016 10 16 0.00 0.00
10:15 pm 22:15 Clear 61 16.1 51 10.7 71 71 Calm 30.00 1016 10 16 0.00 0.00
10:35 pm 22:35 Clear 59 15.1 52 11.3 78 78 Calm 30.02 1016 10 16 0.00 0.00
10:55 pm 22:55 Clear 58 14.5 54 12.1 86 86 Calm 30.03 1017 10 16 0.00 0.00
11:15 pm 23:15 Clear 59 14.8 53 11.7 82 82 Calm 30.03 1017 10 16 0.00 0.00
11:35 pm 23:35 Partly Cloudy 57 14.1 51 10.6 80 80 N 5 7 30.03 1017 10 16 0.00 0.00
11:55 pm 23:55 Cloudy 59 15.1 52 11.3 78 78 NNE 3 6 30.03 1017 10 16 0.00 0.00

Powered by AerisWeather